Stations météo

réclame
Mon MeteoGroup
Thorney Island, Grande-Bretagne (3872): Température de l'air & dewpoint: 18.09.2019 10:00:00 - 24.09.2019 10:00:00 (BST)Thorney Island, Grande-Bretagne (3872): Température de l'air -20cm & Température de l'air -100cm: 18.09.2019 10:00:00 - 24.09.2019 10:00:00 (BST)Thorney Island, Grande-Bretagne (3872): Vitesse du vent & gusts: 18.09.2019 10:00:00 - 24.09.2019 10:00:00 (BST)Thorney Island, Grande-Bretagne (3872): Direction du vent: 18.09.2019 10:00:00 - 24.09.2019 10:00:00 (BST)Thorney Island, Grande-Bretagne (3872): reduced air pressure: 18.09.2019 10:00:00 - 24.09.2019 10:00:00 (BST)Thorney Island, Grande-Bretagne (3872): visibility: 18.09.2019 10:00:00 - 24.09.2019 10:00:00 (BST)Thorney Island, Grande-Bretagne (3872): Quantités de précipitations: 18.09.2019 10:00:00 - 24.09.2019 10:00:00 (BST)
Date & Time tt [°C] td [°C] tt -20cm [°C] tt -100cm [°C] ff [km/h] ff [knt] fx [km/h] fx [knt] dd ppp [hPa] vv [km] rr [mm]
24.09.2019 10:00:00 18,1 16,9 - - 37 20 48 26 SSW 1000,6 17 0,4
24.09.2019 09:00:00 17,4 16,2 - - 37 20 61 33 SW 1000,7 11 2,0
24.09.2019 08:00:00 16,6 16,3 - - 37 20 55 30 S 1000,6 2,8 7,6
24.09.2019 07:00:00 16,8 16,4 - - 35 19 52 28 S 1001,3 9 3,4
24.09.2019 06:00:00 16,9 16,4 - - 39 21 50 27 S 1002,1 7 5,6
24.09.2019 05:00:00 16,7 16,4 - - 31 17 46 25 S 1003,4 5 5,8
24.09.2019 04:00:00 16,7 16,1 - - 31 17 - - S 1004,6 9 0,0
24.09.2019 03:00:00 16,9 16,2 - - 29 16 - - S 1005,7 19 0,2
24.09.2019 02:00:00 16,7 16,2 - - 31 17 - - S 1006,3 10 0,0
24.09.2019 01:00:00 16,9 16,1 - - 34 18 46 25 SSW 1007,0 16 0,0
24.09.2019 00:00:00 16,6 16,0 - - 35 19 48 26 SSW 1007,6 15 0,0
23.09.2019 23:00:00 16,6 16,0 - - 37 20 52 28 S 1008,1 16 0,0
23.09.2019 22:00:00 16,4 15,9 - - 39 21 59 32 S 1008,5 9 0,2
23.09.2019 21:00:00 16,4 15,6 - - 44 24 59 32 S 1008,7 9 0,0
23.09.2019 20:00:00 16,1 15,6 - - 41 22 57 31 S 1009,2 4,7 0,8
23.09.2019 19:00:00 15,7 15,1 - - 41 22 52 28 S 1009,2 4,3 0,8
23.09.2019 18:00:00 15,7 14,9 - - 34 18 50 27 S 1009,8 5 0,6
23.09.2019 17:00:00 16,1 13,5 - - 34 18 46 25 S 1010,3 22 0,0
23.09.2019 16:00:00 16,1 14,6 - - 35 19 - - S 1010,9 7 1,6
23.09.2019 15:00:00 16,1 13,6 - - 34 18 46 25 SSW 1011,4 8 0,4
23.09.2019 14:00:00 17,8 14,3 - - 28 15 - - SSW 1011,6 23 0,0
23.09.2019 13:00:00 18,4 13,9 - - 31 17 - - SSW 1011,7 28 0,0
23.09.2019 12:00:00 17,8 13,6 - - 29 16 - - SSW 1011,8 30 0,0
23.09.2019 11:00:00 16,9 13,7 - - 29 16 - - SSW 1012,2 25 0,0
23.09.2019 10:00:00 16,8 12,3 16,4 16,0 28 15 - - SSW 1011,9 35 0,0
23.09.2019 09:00:00 16,4 13,0 - - 18 10 - - SW 1011,9 35 0,0
23.09.2019 08:00:00 15,0 12,5 - - 13 7 - - WSW 1011,5 27 0,0
23.09.2019 07:00:00 13,6 11,7 - - 11 6 - - WSW 1011,0 29 0,0
23.09.2019 06:00:00 14,2 11,9 - - 16 9 - - WSW 1010,5 30 0,0
23.09.2019 05:00:00 14,4 12,2 - - 21 11 - - WSW 1010,0 30 0,0
23.09.2019 04:00:00 15,2 13,2 - - 22 12 - - W 1009,6 29 0,0
23.09.2019 03:00:00 15,0 13,6 - - 18 10 - - WSW 1008,8 30 0,0
23.09.2019 02:00:00 14,6 13,7 - - 13 7 - - WSW 1008,4 35 0,2
23.09.2019 01:00:00 14,7 13,9 - - 13 7 46 25 SW 1007,6 30 0,8
23.09.2019 00:00:00 15,2 12,8 - - 18 10 - - SW 1007,2 45 0,0
22.09.2019 23:00:00 15,8 13,1 - - 21 11 - - SW 1006,9 30 0,0
22.09.2019 22:00:00 15,9 12,9 - - 22 12 - - SW 1006,3 45 0,0
22.09.2019 21:00:00 16,3 13,5 - - 28 15 - - SW 1005,9 30 0,0
22.09.2019 20:00:00 16,4 13,2 - - 22 12 - - SW 1005,8 35 0,0
22.09.2019 19:00:00 16,9 12,8 - - 22 12 - - SW 1005,3 45 0,0
22.09.2019 18:00:00 17,3 13,0 - - 24 13 - - SW 1005,1 30 0,0
22.09.2019 17:00:00 18,5 14,4 - - 29 16 - - SSW 1004,9 35 0,0
22.09.2019 16:00:00 18,2 15,1 - - 28 15 - - SSW 1004,7 30 0,0
22.09.2019 15:00:00 17,9 15,3 - - 26 14 - - SSW 1004,7 35 0,0
22.09.2019 14:00:00 17,7 15,5 - - 26 14 - - SSW 1004,6 30 0,0
22.09.2019 13:00:00 17,1 15,7 - - 26 14 - - SSW 1004,3 45 0,0
22.09.2019 12:00:00 16,6 15,9 - - 2 1 - - SE 1003,7 40 2,0
22.09.2019 11:00:00 15,9 15,3 - - 9 5 - - W 1003,6 9 6,6
22.09.2019 10:00:00 18,0 15,4 16,4 16,0 15 8 - - SW 1003,1 26 0,0
22.09.2019 09:00:00 18,5 17,0 - - 11 6 - - SSE 1002,8 21 0,0
22.09.2019 08:00:00 17,9 16,4 - - 9 5 - - E 1002,6 26 0,0
22.09.2019 07:00:00 17,9 15,8 - - 5 3 - - ESE 1002,9 29 0,0
22.09.2019 06:00:00 18,5 16,1 - - 11 6 - - E 1002,8 30 0,0
22.09.2019 05:00:00 18,1 16,0 - - 9 5 - - E 1002,9 25 0,0
22.09.2019 04:00:00 18,1 15,9 - - 13 7 - - ESE 1003,5 23 0,0
22.09.2019 03:00:00 18,2 15,7 - - 15 8 - - E 1003,8 26 1,0
22.09.2019 02:00:00 19,3 15,1 - - 13 7 - - E 1004,2 35 0,0
22.09.2019 01:00:00 19,0 15,6 - - 13 7 - - E 1004,9 30 0,0
22.09.2019 00:00:00 19,7 15,3 - - 15 8 - - E 1005,4 30 0,0
21.09.2019 23:00:00 19,7 14,8 - - 18 10 - - E 1005,9 40 0,0
21.09.2019 22:00:00 19,6 14,3 - - 15 8 - - E 1006,4 45 0,0
21.09.2019 21:00:00 19,0 12,9 - - 15 8 - - E 1006,9 45 0,0
21.09.2019 20:00:00 19,5 12,5 - - 15 8 - - E 1007,1 35 0,0
21.09.2019 19:00:00 19,1 11,5 - - 16 9 - - E 1007,5 45 0,0
21.09.2019 18:00:00 19,6 11,4 - - 16 9 - - E 1008,1 35 0,0
21.09.2019 17:00:00 19,8 11,9 - - 21 11 - - E 1008,8 30 0,0
21.09.2019 16:00:00 19,5 12,3 - - 26 14 - - E 1009,6 40 0,0
21.09.2019 15:00:00 20,2 11,5 - - 24 13 - - E 1010,1 40 0,0
21.09.2019 14:00:00 20,6 11,4 - - 26 14 - - E 1010,5 30 0,0
21.09.2019 13:00:00 20,3 11,3 - - 28 15 - - E 1011,3 40 0,0
21.09.2019 12:00:00 19,3 11,9 - - 24 13 - - E 1011,7 40 0,0
21.09.2019 11:00:00 19,0 12,4 - - 24 13 - - E 1012,3 35 0,0
21.09.2019 10:00:00 18,0 11,9 15,7 16,0 26 14 - - E 1012,8 26 0,0
21.09.2019 09:00:00 16,3 11,2 - - 15 8 - - E 1013,1 40 0,0
21.09.2019 08:00:00 14,2 9,9 - - 18 10 - - E 1013,3 40 0,0
21.09.2019 07:00:00 13,0 9,1 - - 16 9 - - E 1013,5 35 0,0
21.09.2019 06:00:00 12,9 9,1 - - 16 9 - - E 1013,9 45 0,0
21.09.2019 05:00:00 13,4 9,0 - - 16 9 - - E 1014,1 45 0,0
21.09.2019 04:00:00 14,0 9,5 - - 16 9 - - E 1014,7 40 0,0
21.09.2019 03:00:00 13,9 8,6 - - 18 10 - - E 1015,3 45 0,0
21.09.2019 02:00:00 13,8 8,6 - - 16 9 - - ENE 1016,2 45 0,0
21.09.2019 01:00:00 13,8 8,4 - - 13 7 - - E 1016,8 40 0,0
21.09.2019 00:00:00 14,2 7,8 - - 15 8 - - E 1017,4 40 0,0
20.09.2019 23:00:00 13,9 7,2 - - 13 7 - - ENE 1018,0 45 0,0
20.09.2019 22:00:00 14,6 6,9 - - 16 9 - - ENE 1018,5 50 0,0
20.09.2019 21:00:00 15,2 6,4 - - 16 9 - - ENE 1018,8 40 0,0
20.09.2019 20:00:00 16,0 5,7 - - 16 9 - - ENE 1019,1 45 0,0
20.09.2019 19:00:00 17,7 5,1 - - 18 10 - - E 1019,5 45 0,0
20.09.2019 18:00:00 19,5 4,4 - - 22 12 - - E 1019,8 20 0,0
20.09.2019 17:00:00 20,5 3,6 - - 22 12 - - E 1020,5 45 0,0
20.09.2019 16:00:00 20,5 4,2 - - 24 13 - - E 1021,7 45 0,0
20.09.2019 15:00:00 20,4 4,9 - - 22 12 - - E 1023,0 40 0,0
20.09.2019 14:00:00 19,7 7,2 - - 24 13 - - E 1023,8 30 0,0
20.09.2019 13:00:00 18,8 7,6 - - 29 16 - - ESE 1024,5 35 0,0
20.09.2019 12:00:00 17,9 7,1 - - 34 18 46 25 ESE 1025,4 35 0,0
20.09.2019 11:00:00 17,7 8,7 - - 31 17 - - ESE 1026,0 26 0,0
20.09.2019 10:00:00 16,7 9,7 15,9 16,0 18 10 - - E 1026,4 28 0,0
20.09.2019 09:00:00 14,8 9,7 - - 16 9 - - E 1026,6 30 0,0
20.09.2019 08:00:00 12,8 9,3 - - 11 6 - - ENE 1026,6 45 0,0
20.09.2019 07:00:00 11,7 9,1 - - 13 7 - - ENE 1026,6 35 0,0
20.09.2019 06:00:00 12,2 9,7 - - 13 7 - - ENE 1026,8 35 0,0
20.09.2019 05:00:00 12,1 10,3 - - 15 8 - - ENE 1027,4 30 0,0
20.09.2019 04:00:00 10,7 9,5 - - 15 8 - - NE 1028,0 26 0,0
20.09.2019 03:00:00 10,6 9,5 - - 13 7 - - NE 1028,4 24 0,0
20.09.2019 02:00:00 11,3 9,7 - - 11 6 - - ENE 1028,7 30 0,0
20.09.2019 01:00:00 11,7 9,7 - - 15 8 - - ENE 1029,2 40 0,0
20.09.2019 00:00:00 10,9 8,7 - - 11 6 - - ENE 1029,5 50 0,0
19.09.2019 23:00:00 11,5 9,3 - - 11 6 - - ENE 1029,7 40 0,0
19.09.2019 22:00:00 11,9 10,7 - - 9 5 - - NE 1029,6 15 0,0
19.09.2019 21:00:00 12,4 10,2 - - 5 3 - - NNE 1029,6 22 0,0
19.09.2019 20:00:00 14,1 10,7 - - 5 3 - - E 1029,6 45 0,0
19.09.2019 19:00:00 15,5 10,4 - - 8 4 - - ESE 1029,4 40 0,0
19.09.2019 18:00:00 17,4 10,8 - - 11 6 - - ESE 1029,5 40 0,0
19.09.2019 17:00:00 17,6 11,4 - - 15 8 - - S 1029,7 40 0,0
19.09.2019 16:00:00 18,5 11,9 - - 18 10 - - S 1029,9 50 0,0
19.09.2019 15:00:00 18,6 10,8 - - 21 11 - - S 1030,2 35 0,0
19.09.2019 14:00:00 18,6 9,7 - - 18 10 - - S 1030,7 40 0,0
19.09.2019 13:00:00 19,0 8,9 - - 11 6 - - E 1031,3 45 0,0
19.09.2019 12:00:00 18,4 8,5 - - 13 7 - - E 1031,5 40 0,0
19.09.2019 11:00:00 17,5 7,5 - - 13 7 - - ENE 1031,8 35 0,0
19.09.2019 10:00:00 16,6 8,7 15,9 16,2 16 9 - - ENE 1031,7 35 0,0
19.09.2019 09:00:00 14,2 8,9 - - 11 6 - - NNE 1031,4 35 0,0
19.09.2019 08:00:00 10,1 7,8 - - 11 6 - - NNE 1031,0 30 0,0
19.09.2019 07:00:00 8,2 6,4 - - 9 5 - - NNE 1030,5 40 0,0
19.09.2019 06:00:00 8,5 6,5 - - 9 5 - - N 1030,3 35 0,0
19.09.2019 05:00:00 8,5 6,7 - - 9 5 - - NNE 1030,2 35 0,0
19.09.2019 04:00:00 8,7 6,6 - - 9 5 - - NNE 1030,3 35 0,0
19.09.2019 03:00:00 8,5 6,4 - - 9 5 - - NE 1030,5 30 0,0
19.09.2019 02:00:00 8,6 6,4 - - 8 4 - - NE 1030,6 35 0,0
19.09.2019 01:00:00 8,9 6,2 - - 9 5 - - NE 1030,6 40 0,0
19.09.2019 00:00:00 9,6 7,1 - - 8 4 - - NE 1030,4 30 0,0
18.09.2019 23:00:00 9,6 7,0 - - 8 4 - - NE 1030,2 30 0,0
18.09.2019 22:00:00 10,9 8,3 - - 5 3 - - NE 1029,8 30 0,0
18.09.2019 21:00:00 11,8 8,2 - - 5 3 - - ESE 1029,6 35 0,0
18.09.2019 20:00:00 14,0 7,2 - - 5 3 - - ENE 1029,1 35 0,0
18.09.2019 19:00:00 15,8 6,7 - - 11 6 - - NE 1028,6 30 0,0
18.09.2019 18:00:00 18,5 6,3 - - 15 8 - - NNE 1028,3 40 0,0
18.09.2019 17:00:00 19,1 6,1 - - 13 7 - - NE 1028,4 40 0,0
18.09.2019 16:00:00 19,3 5,8 - - 11 6 - - NE 1028,7 30 0,0
18.09.2019 15:00:00 19,2 6,0 - - 13 7 - - ENE 1028,9 40 0,0
18.09.2019 14:00:00 18,7 5,6 - - 21 11 - - NE 1029,2 30 0,0
18.09.2019 13:00:00 18,0 5,1 - - 15 8 - - ENE 1029,4 35 0,0
18.09.2019 12:00:00 16,7 2,3 - - 11 6 - - NE 1029,8 35 0,0
18.09.2019 11:00:00 16,1 5,4 - - 16 9 - - NE 1029,9 30 0,0
18.09.2019 10:00:00 14,5 6,9 16,4 16,2 18 10 - - NE 1029,9 29 0,0

tt = Température de l'air
td = dewpoint
tt -20cm = Température de l'air -20cm
tt -100cm = Température de l'air -100cm
ff = Vitesse du vent
fx = gusts
dd = Direction du vent
ppp = reduced air pressure
vv = visibility
rr = Quantités de précipitations

stations d'obs. à proximité